STARLINK-34310, 64210

Orbit data source: Space-Track

STARLINK-34310, 64210 is a payload satellite owned by SpaceX/Seattle (US) in LEO that was launched on Sat, 31 May 2025 UTC via an FALCON 9 launch vehicle from the Air Force Western Test Range (AFWTR). Payload-class satellites include a variety of spacecraft equipped with specific instruments for various scientific and technological missions. These include communications satellites like Starlink; space stations such as the ISS; scientific satellites like the Hubble; Earth observation satellites from companies like Planet Labs, Umbra, and HawkEye 360; GPS; miniature CubeSats for education and research; and military/defense satellites.

Loading next visibility...
Identifier
64210, 2025-117H
Orbit
LEO
Country
Flag of USUS
Related business
Manufacturer
SpaceX/Seattle
Mission
Operational Commercial Communications
Bus & Motor
STARLINK V2MO, Unknown motor
Mass
575 kg wet, ~530 kg dry
Launch date (UTC)
2025-05-31 (1 year ago)
Launch vehicle
FALCON 9
Launch site
Air Force Western Test Range (AFWTR)
Object type
Payload
Rocket body
Debris
Shape & HBR
Box + 2 Pan, 17.7 m
Radar Cross Section
36.964 m², Large (>1 m²)

Expand to show TLE details & history
Last TLE update: 1 day ago

TLE from 1 day ago
0 STARLINK-34310
1 64210U 25117H   26170.61012465  .00014591  00000-0  50360-3 0  9997
2 64210  53.1602 285.9534 0001410  96.6444 263.4718 15.30212188 60139
Epoch: 2026-06-19T14:38Z
TLE epoch observation values (Epoch: 2026-06-19T14:38:34.769Z)
Latitude
0.00002°
Longitude
158.47191°
Altitude
476.188 km
Speed
7.629 km/s
True Right ascension
19h 03m 48s
True Declination
0° 00' 00"
Sunlit
Object was in full shadow at epoch
Visualization orbit readout
Latitude
Unknown
Longitude
Unknown
Altitude
Unknown
Speed
Unknown
Apparent Right ascension
Unknown
Apparent Declination
Unknown
Sunlit
N/A
Visualization observer readout
Local Sidereal Time
07:19:50
Azimuth
Unknown
Elevation
Unknown
Doppler factor
Unknown
Orbital elements
Apogee altitude
476.401 km
Perigee altitude
474.469 km
Semi-major axis
6,853.572 km
Eccentricity
0.00014
Inclination
53.1602°
RAAN
285.9534°
Arg. of periapsis
96.6444°
True anomaly
263.45575°
Mean anomaly
263.4718°
Eccentric anomaly
263.46377°
Mean motion
3.82532 °/min
Orbital period
94.11 mins
BSTAR
0.0005036
Loading maneuver chart data...
Computing Atmospheric mass density...
Loading historical data...
Loading historical data...
Loading historical data...
Loading historical data...
Loading historical data...
Loading historical data...
Loading historical data...

Documentation

Showing up to 5 results
|